AAL350 CYYZ-KJFK

Flight info

Callsign AAL350
Flight time N/A
Altitude 35000
Route KEPTA3 BMPAH DCT AEVON DCT EXTOL Q140 YODAA DCT IGN IGN1
Aircraft B737/M-SDE2E3FGHIRWXY/LB1

Departure

Time N/A
Airport Toronto Pearson International Airport (CYYZ)

Arrival

Time 2026-05-07 22:37
Airport John F. Kennedy International Airport (KJFK)
Time Latitude Longitude Altitude Speed Heading
2026-05-07 22:29 40.53700 -73.41081 2861 ft 180 kts 190°
2026-05-07 22:29 40.52541 -73.41580 2858 ft 173 kts 217°
2026-05-07 22:30 40.51716 -73.42641 2836 ft 163 kts 242°
2026-05-07 22:30 40.51364 -73.44040 2863 ft 164 kts 265°
2026-05-07 22:30 40.51511 -73.45528 2859 ft 167 kts 291°
2026-05-07 22:30 40.52028 -73.46903 2860 ft 169 kts 294°
2026-05-07 22:31 40.52542 -73.48272 2839 ft 164 kts 294°
2026-05-07 22:31 40.53050 -73.49615 2852 ft 165 kts 294°
2026-05-07 22:31 40.53565 -73.50967 2854 ft 166 kts 294°
2026-05-07 22:31 40.54084 -73.52325 2836 ft 166 kts 294°
2026-05-07 22:32 40.54603 -73.53681 2837 ft 166 kts 294°
2026-05-07 22:32 40.55123 -73.55035 2842 ft 165 kts 294°
2026-05-07 22:32 40.55641 -73.56384 2841 ft 165 kts 294°
2026-05-07 22:32 40.56152 -73.57714 2844 ft 165 kts 294°
2026-05-07 22:33 40.56673 -73.59026 2835 ft 159 kts 297°
2026-05-07 22:33 40.57230 -73.60253 2806 ft 156 kts 297°
2026-05-07 22:33 40.57804 -73.61502 2550 ft 159 kts 297°
2026-05-07 22:33 40.58374 -73.62746 2335 ft 158 kts 297°
2026-05-07 22:34 40.58940 -73.63983 2126 ft 158 kts 297°
2026-05-07 22:34 40.59509 -73.65228 1902 ft 158 kts 297°
2026-05-07 22:34 40.60071 -73.66464 1710 ft 158 kts 296°
2026-05-07 22:34 40.60642 -73.67714 1472 ft 159 kts 296°
2026-05-07 22:35 40.61211 -73.68967 1290 ft 160 kts 297°
2026-05-07 22:35 40.61785 -73.70227 1067 ft 162 kts 297°
2026-05-07 22:35 40.62357 -73.71489 838 ft 159 kts 297°
2026-05-07 22:35 40.62911 -73.72713 652 ft 154 kts 300°
2026-05-07 22:36 40.63457 -73.73914 414 ft 149 kts 303°
2026-05-07 22:36 40.63971 -73.75041 271 ft 140 kts 303°
2026-05-07 22:36 40.64497 -73.76200 52 ft 151 kts 303°
2026-05-07 22:36 40.65030 -73.77367 19 ft 124 kts 302°
2026-05-07 22:37 40.65228 -73.77894 19 ft 19 kts 263°
2026-05-07 22:37 40.65207 -73.77933 19 ft 0 kts 224°
2026-05-07 22:37 40.65193 -73.77952 21 ft 10 kts 228°
2026-05-07 22:37 40.65186 -73.77988 19 ft 8 kts 280°
2026-05-07 22:38 40.65223 -73.78093 20 ft 11 kts 303°
2026-05-07 22:38 40.65290 -73.78228 20 ft 24 kts 303°
2026-05-07 22:38 40.65358 -73.78420 20 ft 18 kts 270°
2026-05-07 22:38 40.65304 -73.78601 21 ft 25 kts 240°
2026-05-07 22:39 40.65235 -73.78767 22 ft 19 kts 245°
2026-05-07 22:39 40.65184 -73.78901 21 ft 14 kts 200°
2026-05-07 22:39 40.65075 -73.78920 18 ft 18 kts 192°
2026-05-07 22:39 40.64980 -73.79044 17 ft 21 kts 239°
2026-05-07 22:40 40.64904 -73.79221 19 ft 23 kts 238°
2026-05-07 22:40 40.64849 -73.79360 17 ft 8 kts 244°
2026-05-07 22:40 40.64835 -73.79437 17 ft 7 kts 292°
2026-05-07 22:40 40.64844 -73.79445 17 ft 5 kts 332°
2026-05-07 22:41 40.64881 -73.79466 18 ft 0 kts 332°